This is the latest recevied weather packets stored in our database for station/object KB4KY. If no packets are shown the sender has not sent any weather packets the latest 10 day(s).
| Time | Temp. | Humidity | Pressure | Rain* | Wind** | Luminosity | Snow |
|---|---|---|---|---|---|---|---|
| 1778101742 | 16.67° C | 66% | 1011.9 hPa | 0 mm | - | - | - |
| 1778101441 | 16.67° C | 64% | 1011.8 hPa | 0 mm | - | - | - |
| 1778101141 | 17.22° C | 63% | 1011.5 hPa | 0 mm | - | - | - |
| 1778100841 | 17.22° C | 60% | 1011.4 hPa | 0 mm | - | - | - |
| 1778100577 | 17.22° C | 61% | 1011.6 hPa | 0 mm | - | - | - |
| 1778100541 | 17.22° C | 61% | 1011.7 hPa | 0 mm | - | - | - |
| 1778100240 | 17.22° C | 62% | 1011.7 hPa | 0 mm | - | - | - |
| 1778099940 | 17.22° C | 61% | 1011.6 hPa | 0 mm | - | - | - |
| 1778099640 | 17.22° C | 61% | 1011.7 hPa | 0 mm | - | - | - |
| 1778099339 | 17.22° C | 62% | 1011.7 hPa | 0 mm | - | - | - |
| 1778099039 | 17.22° C | 62% | 1011.6 hPa | 0 mm | - | - | - |
| 1778098739 | 17.22° C | 62% | 1011.4 hPa | 0 mm | - | - | - |
| 1778098439 | 17.22° C | 62% | 1011.4 hPa | 0 mm | - | - | - |
| 1778098141 | 17.22° C | 62% | 1011.5 hPa | 0 mm | - | - | - |
| 1778097838 | 17.22° C | 60% | 1011.6 hPa | 0 mm | - | - | - |
| 1778097538 | 17.78° C | 62% | 1011.5 hPa | 0 mm | - | - | - |
| 1778097273 | 17.22° C | 63% | 1011.6 hPa | 0 mm | - | - | - |
| 1778097241 | 17.22° C | 63% | 1011.6 hPa | 0 mm | - | - | - |
| 1778096939 | 16.67° C | 65% | 1011.7 hPa | 0 mm | - | - | - |
| 1778096638 | 17.22° C | 63% | 1011.6 hPa | 0 mm | - | - | - |
| 1778096372 | 17.22° C | 64% | 1012 hPa | 0 mm | - | - | - |
| 1778096337 | 17.22° C | 64% | 1012 hPa | 0 mm | - | - | - |
| 1778096073 | 17.22° C | 63% | 1012.1 hPa | 0 mm | - | - | - |
| 1778096039 | 17.22° C | 63% | 1012.1 hPa | 0 mm | - | - | - |
| 1778095736 | 17.22° C | 63% | 1011.9 hPa | 0 mm | - | - | - |
* Rain latest hour (hover to see other rain measurements)
** Current wind speed in m/s (hover to see current wind gust speed)